{"data":{"norad_id":56078,"intl_designator":"2023-043AJ","name":"ONEWEB-0637","alt_names":[],"object_type":"PAYLOAD","status":"ACTIVE","operator":null,"country":"UK","launch_date":"2023-03-26","launch_site_code":"SRILR","launch_vehicle":null,"mission":null,"orbit_class":"UNKNOWN","rcs_meters":null,"size_class":null,"mass_kg":null,"dimensions":null,"purposes":["comms"],"wikipedia_slug":null,"has_3d_model":false,"image_url":null,"decayed_at":null,"tle_current":{"epoch":"2026-09-20T04:50:14.372736Z","epoch_age_seconds":44095,"freshness":"FRESH","line1":"1 56078U 23043AJ  26263.20155524 -.00000097  00000+0 -29130-3 0  9996","line2":"2 56078  87.8984 240.2668 0002076  91.0604 269.0764 13.15547943168927","mean_motion":13.15547943,"eccentricity":0.0002076,"inclination_deg":87.8984,"raan_deg":240.2668,"arg_perigee_deg":91.0604,"mean_anomaly_deg":269.0764,"bstar":-0.0002913,"rev_number":16892,"period_min":109.46009285805,"perigee_km":1200.1995097281,"apogee_km":1203.3466884013,"semimajor_km":7579.9100990647,"source":"CELESTRAK","updated_at":"2026-09-20T09:00:44.793260Z"}}}